When you browse on this site, cookies collect data to enhance your experience and personalize the content and advertising you see.
Visit our Privacy Policy to learn more. By continuing to use the site, you agree to this use of cookies and data.
  • în România
  • Lista ţărilor
  • Pe 7 zile
  • Temperatura apei
  • Hartă satelitară
  • Meteo pe hartă
  • Widget-uri
  • user-avatar
    Intrare

    Meteo pe oră la Koln

    Astăzi, 25 Mai, Sâmbătă

    Timp Temperatura Precipitaţii Vânt Presiune Umiditate
    00:00 +14°C° 0 mm 2 m/s 757 mmHg 70%
    01:00 +13°C° 0 mm 2 m/s 757 mmHg 73%
    02:00 +12°C° 0 mm 2 m/s 757 mmHg 76%
    03:00 +10°C° 0 mm 2 m/s 757 mmHg 80%
    04:00 +12°C° 0 mm 2 m/s 757 mmHg 79%
    05:00 +13°C° 0 mm 2 m/s 757 mmHg 77%
    06:00 +14°C° 0 mm 1 m/s 757 mmHg 74%
    07:00 +15°C° 0 mm 1 m/s 757 mmHg 68%
    08:00 +16°C° 0 mm 2 m/s 757 mmHg 62%
    09:00 +18°C° 0 mm 2 m/s 757 mmHg 57%
    10:00 +19°C° 0 mm 2 m/s 757 mmHg 53%
    11:00 +20°C° 0 mm 2 m/s 757 mmHg 50%
    12:00 +20°C° 0 mm 2 m/s 758 mmHg 48%
    13:00 +20°C° 0 mm 2 m/s 757 mmHg 48%
    14:00 +20°C° 0 mm 3 m/s 757 mmHg 47%
    15:00 +21°C° 0 mm 3 m/s 757 mmHg 47%
    16:00 +20°C° 0 mm 2 m/s 757 mmHg 51%
    17:00 +19°C° 0 mm 2 m/s 757 mmHg 55%
    18:00 +19°C° 0 mm 2 m/s 756 mmHg 59%
    19:00 +18°C° 0 mm 1 m/s 757 mmHg 64%
    20:00 +16°C° 0 mm 1 m/s 757 mmHg 69%
    21:00 +13°C° 0 mm 0 m/s 757 mmHg 74%
    22:00 +14°C° 0 mm 1 m/s 757 mmHg 76%
    23:00 +13°C° 0 mm 1 m/s 757 mmHg 78%

    Mâine, 26 Mai, Duminică

    Timp Temperatura Precipitaţii Vânt Presiune Umiditate
    00:00 +13°C° 0 mm 1 m/s 757 mmHg 80%
    01:00 +12°C° 0 mm 1 m/s 757 mmHg 83%
    02:00 +12°C° 0 mm 2 m/s 757 mmHg 85%
    03:00 +12°C° 0 mm 2 m/s 757 mmHg 88%
    04:00 +13°C° 0 mm 2 m/s 757 mmHg 84%
    05:00 +13°C° 0 mm 2 m/s 756 mmHg 80%
    06:00 +14°C° 0 mm 2 m/s 756 mmHg 76%
    07:00 +16°C° 0 mm 3 m/s 756 mmHg 69%
    08:00 +18°C° 0 mm 3 m/s 756 mmHg 62%
    09:00 +20°C° 0 mm 3 m/s 756 mmHg 54%
    10:00 +21°C° 0 mm 3 m/s 755 mmHg 54%
    11:00 +22°C° 0 mm 3 m/s 755 mmHg 54%
    12:00 +23°C° 0 mm 4 m/s 755 mmHg 54%
    13:00 +22°C° 0.2 mm 4 m/s 754 mmHg 61%
    14:00 +21°C° 0.2 mm 4 m/s 754 mmHg 67%
    15:00 +20°C° 0.2 mm 3 m/s 754 mmHg 73%
    16:00 +20°C° 0.2 mm 3 m/s 753 mmHg 75%
    17:00 +20°C° 0.2 mm 4 m/s 753 mmHg 77%
    18:00 +20°C° 0.2 mm 4 m/s 753 mmHg 78%
    19:00 +19°C° 0 mm 4 m/s 753 mmHg 81%
    20:00 +17°C° 0 mm 3 m/s 753 mmHg 84%
    21:00 +16°C° 0 mm 3 m/s 753 mmHg 86%
    22:00 +16°C° 0 mm 3 m/s 753 mmHg 87%
    23:00 +14°C° 0 mm 3 m/s 753 mmHg 88%

    Poimâine, 27 Mai, Luni

    Timp Temperatura Precipitaţii Vânt Presiune Umiditate
    00:00 +14°C° 0 mm 3 m/s 752 mmHg 89%
    01:00 +14°C° 0.2 mm 3 m/s 752 mmHg 90%
    02:00 +14°C° 0.2 mm 3 m/s 752 mmHg 91%
    03:00 +16°C° 0.2 mm 3 m/s 752 mmHg 91%
    04:00 +14°C° 0.2 mm 3 m/s 752 mmHg 91%
    05:00 +15°C° 0.2 mm 2 m/s 752 mmHg 91%
    06:00 +15°C° 0.2 mm 2 m/s 752 mmHg 90%
    07:00 +16°C° 0.1 mm 2 m/s 753 mmHg 84%
    08:00 +17°C° 0.1 mm 2 m/s 753 mmHg 77%
    09:00 +18°C° 0.1 mm 3 m/s 753 mmHg 71%
    10:00 +18°C° 0 mm 3 m/s 753 mmHg 66%
    11:00 +19°C° 0 mm 3 m/s 753 mmHg 61%
    12:00 +20°C° 0 mm 4 m/s 753 mmHg 56%
    13:00 +20°C° 0 mm 4 m/s 753 mmHg 54%
    14:00 +20°C° 0 mm 4 m/s 752 mmHg 52%
    15:00 +20°C° 0 mm 4 m/s 752 mmHg 50%
    16:00 +19°C° 0 mm 3 m/s 752 mmHg 53%
    17:00 +19°C° 0 mm 3 m/s 752 mmHg 56%
    18:00 +18°C° 0 mm 3 m/s 752 mmHg 59%
    19:00 +17°C° 0 mm 3 m/s 752 mmHg 60%
    20:00 +16°C° 0 mm 2 m/s 753 mmHg 61%
    21:00 +15°C° 0 mm 2 m/s 753 mmHg 62%
    22:00 +14°C° 0 mm 2 m/s 753 mmHg 64%
    23:00 +14°C° 0 mm 1 m/s 752 mmHg 67%

    28 Mai, Marţi

    Timp Temperatura Precipitaţii Vânt Presiune Umiditate
    00:00 +13°C° 0 mm 1 m/s 752 mmHg 69%
    01:00 +12°C° 0 mm 1 m/s 752 mmHg 73%
    02:00 +12°C° 0 mm 1 m/s 751 mmHg 76%
    03:00 +11°C° 0 mm 1 m/s 751 mmHg 79%
    04:00 +12°C° 0 mm 2 m/s 751 mmHg 78%
    05:00 +13°C° 0 mm 2 m/s 751 mmHg 76%
    06:00 +13°C° 0 mm 2 m/s 751 mmHg 74%
    07:00 +13°C° 0.2 mm 3 m/s 750 mmHg 72%
    08:00 +14°C° 0.2 mm 3 m/s 750 mmHg 70%
    09:00 +16°C° 0.2 mm 3 m/s 750 mmHg 69%
    10:00 +15°C° 0.5 mm 4 m/s 750 mmHg 68%
    11:00 +17°C° 0.5 mm 4 m/s 750 mmHg 67%
    12:00 +17°C° 0.5 mm 4 m/s 749 mmHg 66%
    13:00 +17°C° 0.4 mm 4 m/s 749 mmHg 66%
    14:00 +17°C° 0.4 mm 4 m/s 749 mmHg 66%
    15:00 +17°C° 0.4 mm 3 m/s 749 mmHg 66%
    16:00 +16°C° 0.9 mm 3 m/s 750 mmHg 69%
    17:00 +16°C° 0.9 mm 3 m/s 750 mmHg 72%
    18:00 +14°C° 0.9 mm 3 m/s 750 mmHg 76%
    19:00 +13°C° 0.3 mm 3 m/s 751 mmHg 78%
    20:00 +12°C° 0.3 mm 3 m/s 751 mmHg 81%
    21:00 +11°C° 0.3 mm 3 m/s 752 mmHg 83%
    22:00 +11°C° 0 mm 3 m/s 752 mmHg 85%
    23:00 +10°C° 0 mm 2 m/s 753 mmHg 87%

    29 Mai, Miercuri

    Timp Temperatura Precipitaţii Vânt Presiune Umiditate
    00:00 +9°C° 0 mm 2 m/s 753 mmHg 88%
    01:00 +9°C° 0 mm 2 m/s 753 mmHg 89%
    02:00 +9°C° 0 mm 2 m/s 754 mmHg 90%
    03:00 +8°C° 0 mm 2 m/s 754 mmHg 91%
    04:00 +9°C° 0 mm 2 m/s 754 mmHg 89%
    05:00 +10°C° 0 mm 2 m/s 755 mmHg 88%
    06:00 +10°C° 0 mm 2 m/s 755 mmHg 86%
    07:00 +13°C° 0 mm 2 m/s 756 mmHg 78%
    08:00 +14°C° 0 mm 2 m/s 756 mmHg 70%
    09:00 +15°C° 0 mm 2 m/s 756 mmHg 61%
    10:00 +16°C° 0.1 mm 3 m/s 756 mmHg 58%
    11:00 +17°C° 0.1 mm 3 m/s 756 mmHg 55%
    12:00 +18°C° 0.1 mm 3 m/s 756 mmHg 51%
    13:00 +18°C° 0.1 mm 3 m/s 757 mmHg 52%
    14:00 +18°C° 0.1 mm 3 m/s 757 mmHg 52%
    15:00 +19°C° 0.1 mm 3 m/s 757 mmHg 53%
    16:00 +18°C° 0.1 mm 3 m/s 757 mmHg 57%
    17:00 +17°C° 0.1 mm 2 m/s 757 mmHg 62%
    18:00 +17°C° 0.1 mm 2 m/s 758 mmHg 66%
    19:00 +15°C° 0.1 mm 2 m/s 758 mmHg 71%
    20:00 +14°C° 0.1 mm 1 m/s 759 mmHg 75%
    21:00 +12°C° 0.1 mm 1 m/s 759 mmHg 79%
    22:00 +12°C° 0 mm 1 m/s 760 mmHg 81%
    23:00 +10°C° 0 mm 2 m/s 760 mmHg 83%

    30 Mai, Joi

    Timp Temperatura Precipitaţii Vânt Presiune Umiditate
    00:00 +10°C° 0 mm 2 m/s 760 mmHg 85%
    01:00 +9°C° 0 mm 2 m/s 760 mmHg 84%
    02:00 +9°C° 0 mm 2 m/s 760 mmHg 84%
    03:00 +9°C° 0 mm 1 m/s 760 mmHg 84%
    04:00 +10°C° 0 mm 2 m/s 760 mmHg 82%
    05:00 +12°C° 0 mm 2 m/s 760 mmHg 79%
    06:00 +12°C° 0 mm 3 m/s 760 mmHg 77%
    07:00 +13°C° 0 mm 3 m/s 760 mmHg 70%
    08:00 +15°C° 0 mm 4 m/s 760 mmHg 64%
    09:00 +17°C° 0 mm 5 m/s 760 mmHg 57%
    10:00 +17°C° 0.1 mm 5 m/s 760 mmHg 57%
    11:00 +19°C° 0.1 mm 5 m/s 760 mmHg 57%
    12:00 +19°C° 0.1 mm 5 m/s 759 mmHg 56%
    13:00 +17°C° 1.8 mm 5 m/s 759 mmHg 66%
    14:00 +15°C° 1.8 mm 4 m/s 759 mmHg 76%
    15:00 +14°C° 1.8 mm 4 m/s 759 mmHg 86%
    16:00 +14°C° 1 mm 4 m/s 758 mmHg 87%
    17:00 +14°C° 1 mm 5 m/s 758 mmHg 88%
    18:00 +14°C° 1 mm 5 m/s 758 mmHg 88%
    19:00 +14°C° 0.2 mm 5 m/s 758 mmHg 89%
    20:00 +14°C° 0.2 mm 5 m/s 759 mmHg 90%
    21:00 +14°C° 0.2 mm 5 m/s 759 mmHg 91%
    22:00 +14°C° 0.1 mm 5 m/s 759 mmHg 91%
    23:00 +14°C° 0.1 mm 4 m/s 759 mmHg 91%
    Arată mai mult